Tracking 34794 objects as of 19-Jul-2026
HD Live streaming from Space Station
objects crossing your sky now

CZ-2C R/B

Track CZ-2C R/B now!
10-day predictions


NORAD ID: 58916
Int'l Code: 2024-023M
Perigee: 597.1 km
Apogee: 730.0 km
Inclination: 49.9 °
Period: 97.9 minutes
Semi major axis: 7034 km
RCS: Unknown
Launch date: February 2, 2024
Source: People's Republic of China (PRC)
Launch site: Xichang Space Center, China (XSC)

Note: This is a ROCKET BODY
Your satellite tracking list
Your tracking list is empty




NASA's NSSDC Master Catalog

Two Line Element Set (TLE):
1 58916U 24023M   26200.32167717 -.00000004  00000-0  33800-4 0  9997
2 58916  49.8985 315.3405 0094473  32.6360 328.0363 14.71456315132033
Source of the keplerian elements: AFSPC